Location: Angwan Shehu
(11.2514°N, 7.4613°E)
Time: 07:13:23
(UTC+00:00)

SR - Pass Details

Date: 19 April 2021
Orbit: 573 x 882 km, 66.7° (Epoch: 12 May)

Event Time Altitude Azimuth Distance (km) Brightness Sun altitude
Rises 07:15:08 0° 246° (WSW) 3,163 ? 27.8°
Reaches altitude 10° 07:19:19 10° 279° (W) 2,323 ? 28.8°
Maximum altitude 07:20:59 11° 298° (WNW) 2,257 ? 29.2°
Drops below altitude 10° 07:22:41 10° 316° (NW) 2,384 ? 29.7°
Sets 07:27:11 0° 349° (NNW) 3,385 ? 30.8°
